QPF
0.02 0.02 0.02 0.02 0.03 0.02 0.02 0.02 0.03 0.02 0.01 0.01 0.01 0.01 0.02 0.01 0.02 0.01 0.01 0.02 0.01 0.02 0.02 0.02 0.02 0.01 0.01 0.00 0.00 0.00 0.00 0.00 0.00 0.00 0.01 0.01 0.01 0.01
0.03 0.02 0.01 0.01 0.01 0.02 0.03 0.04 0.04 0.03 0.02 0.02 0.01 0.01 0.01 0.01 0.02 0.01 0.01 0.01 0.01 0.01 0.01 0.01 0.01 0.01 0.01 0.01 0.01 0.01 0.01 0.01 0.01 0.01 0.01 0.01 0.00 0.00
0.04 0.04 0.03 0.03 0.03 0.03 0.04 0.05 0.04 0.04 0.03 0.02 0.01 0.01 0.01 0.01 0.01 0.01 0.01 0.01 0.01 0.01 0.01 0.01 0.01 0.01 0.01 0.01 0.01 0.01 0.01 0.01 0.01 0.01 0.01 0.01 0.01 0.01
0.03 0.04 0.03 0.05 0.04 0.04 0.05 0.06 0.06 0.05 0.04 0.02 0.02 0.02 0.02 0.03 0.03 0.03 0.03 0.02 0.02 0.01 0.01 0.01 0.01 0.01 0.01 0.01 0.01 0.01 0.01 0.01 0.01 0.01 0.01 0.01 0.01 0.01
0.04 0.03 0.02 0.03 0.03 0.03 0.04 0.06 0.07 0.09 0.08 0.07 0.07 0.07 0.06 0.05 0.05 0.05 0.04 0.03 0.02 0.02 0.02 0.02 0.02 0.02 0.01 0.01 0.01 0.01 0.01 0.01 0.01 0.01 0.01 0.01 0.02 0.02
0.05 0.06 0.06 0.05 0.04 0.05 0.06 0.07 0.10 0.12 0.14 0.13 0.11 0.07 0.05 0.05 0.05 0.05 0.05 0.04 0.04 0.04 0.05 0.04 0.04 0.03 0.02 0.01 0.01 0.01 0.01 0.01 0.01 0.01 0.01 0.01 0.02 0.02
0.06 0.06 0.06 0.06 0.06 0.06 0.05 0.04 0.06 0.06 0.07 0.07 0.07 0.06 0.05 0.05 0.06 0.06 0.07 0.08 0.07 0.06 0.05 0.05 0.04 0.03 0.02 0.01 0.01 0.01 0.01 0.01 0.01 0.01 0.01 0.01 0.01 0.02
0.05 0.06 0.07 0.09 0.08 0.07 0.06 0.07 0.07 0.07 0.06 0.06 0.06 0.05 0.05 0.05 0.06 0.07 0.07 0.07 0.06 0.05 0.05 0.05 0.04 0.03 0.03 0.02 0.01 0.01 0.01 0.00 0.01 0.01 0.01 0.01 0.01 0.01
0.06 0.06 0.08 0.09 0.09 0.07 0.07 0.07 0.07 0.08 0.07 0.06 0.04 0.03 0.04 0.05 0.07 0.07 0.07 0.06 0.06 0.06 0.06 0.05 0.04 0.03 0.02 0.01 0.01 0.00 0.01 0.01 0.01 0.01 0.01 0.01 0.01 0.01
0.08 0.09 0.09 0.09 0.10 0.11 0.10 0.08 0.07 0.07 0.09 0.07 0.05 0.04 0.04 0.04 0.05 0.07 0.07 0.05 0.04 0.04 0.04 0.04 0.03 0.03 0.02 0.01 0.01 0.01 0.00 0.00 0.00 0.01 0.01 0.01 0.01 0.01
0.07 0.09 0.09 0.07 0.09 0.11 0.10 0.09 0.08 0.07 0.09 0.11 0.08 0.05 0.04 0.04 0.05 0.05 0.05 0.05 0.05 0.04 0.04 0.03 0.03 0.04 0.03 0.02 0.01 0.01 0.01 0.01 0.01 0.01 0.01 0.01 0.01 0.01
0.05 0.07 0.08 0.09 0.10 0.11 0.10 0.09 0.09 0.08 0.08 0.08 0.09 0.08 0.06 0.05 0.06 0.06 0.05 0.04 0.03 0.03 0.03 0.03 0.03 0.03 0.03 0.04 0.04 0.04 0.03 0.02 0.01 0.01 0.01 0.01 0.01 0.01
0.05 0.05 0.06 0.08 0.10 0.11 0.10 0.09 0.08 0.09 0.11 0.11 0.11 0.09 0.07 0.05 0.05 0.04 0.04 0.04 0.04 0.04 0.03 0.04 0.05 0.06 0.07 0.07 0.06 0.06 0.04 0.02 0.01 0.01 0.01 0.01 0.01 0.01
0.05 0.05 0.06 0.08 0.08 0.09 0.07 0.06 0.06 0.06 0.07 0.07 0.07 0.05 0.04 0.03 0.02 0.03 0.03 0.03 0.04 0.05 0.06 0.07 0.07 0.06 0.06 0.06 0.04 0.03 0.02 0.02 0.02 0.02 0.02 0.02 0.01 0.01
0.04 0.05 0.06 0.08 0.08 0.06 0.05 0.04 0.03 0.03 0.03 0.03 0.03 0.03 0.02 0.02 0.02 0.02 0.03 0.03 0.04 0.05 0.06 0.05 0.05 0.05 0.05 0.04 0.03 0.03 0.02 0.02 0.02 0.02 0.02 0.02 0.02 0.02
0.04 0.05 0.06 0.05 0.06 0.06 0.06 0.04 0.03 0.03 0.02 0.02 0.02 0.02 0.02 0.01 0.02 0.02 0.03 0.03 0.03 0.03 0.04 0.04 0.04 0.04 0.05 0.05 0.05 0.05 0.05 0.05 0.05 0.05 0.06 0.06 0.05 0.03
0.04 0.05 0.05 0.05 0.05 0.05 0.05 0.05 0.03 0.03 0.02 0.02 0.02 0.02 0.02 0.02 0.02 0.02 0.02 0.02 0.03 0.03 0.03 0.04 0.05 0.06 0.07 0.08 0.08 0.08 0.08 0.08 0.08 0.07 0.06 0.05 0.04 0.03
0.05 0.06 0.06 0.05 0.06 0.06 0.06 0.04 0.03 0.02 0.02 0.02 0.02 0.03 0.03 0.03 0.02 0.02 0.02 0.02 0.03 0.03 0.04 0.05 0.06 0.08 0.10 0.10 0.09 0.08 0.08 0.08 0.08 0.07 0.07 0.06 0.05 0.04
0.05 0.05 0.04 0.04 0.04 0.04 0.04 0.04 0.04 0.03 0.03 0.03 0.03 0.02 0.02 0.03 0.03 0.03 0.03 0.04 0.04 0.05 0.06 0.06 0.06 0.07 0.08 0.08 0.08 0.07 0.05 0.05 0.05 0.06 0.06 0.06 0.05 0.04
0.05 0.06 0.06 0.05 0.05 0.06 0.06 0.06 0.06 0.06 0.05 0.05 0.04 0.04 0.03 0.03 0.03 0.04 0.04 0.05 0.06 0.07 0.07 0.07 0.07 0.08 0.08 0.08 0.07 0.07 0.05 0.04 0.04 0.04 0.04 0.04 0.04 0.04
0.07 0.07 0.09 0.10 0.09 0.08 0.08 0.07 0.06 0.05 0.05 0.05 0.04 0.03 0.03 0.03 0.03 0.04 0.05 0.07 0.07 0.07 0.08 0.08 0.08 0.08 0.06 0.05 0.05 0.05 0.04 0.03 0.02 0.02 0.03 0.03 0.03 0.03
0.04 0.04 0.05 0.05 0.07 0.07 0.07 0.07 0.06 0.06 0.05 0.05 0.04 0.04 0.04 0.04 0.05 0.05 0.06 0.06 0.07 0.07 0.08 0.08 0.08 0.07 0.05 0.04 0.04 0.04 0.03 0.03 0.02 0.02 0.02 0.01 0.01 0.01
0.04 0.04 0.04 0.03 0.04 0.04 0.04 0.04 0.05 0.05 0.05 0.05 0.05 0.05 0.06 0.06 0.06 0.06 0.06 0.06 0.07 0.07 0.06 0.06 0.06 0.06 0.05 0.04 0.04 0.04 0.04 0.03 0.02 0.01 0.01 0.01 0.00 0.00
MSLP
1019.48 1019.69 1019.90 1020.12 1020.33 1020.51 1020.65 1020.74 1020.78 1020.77 1020.73 1020.66 1020.57 1020.49 1020.41 1020.34 1020.30 1020.28 1020.28 1020.31 1020.36 1020.43 1020.52 1020.60 1020.69 1020.76 1020.81 1020.83 1020.84 1020.84 1020.84 1020.84 1020.86 1020.90 1020.95 1021.00 1021.04 1021.06
1019.20 1019.40 1019.59 1019.79 1019.99 1020.18 1020.35 1020.49 1020.59 1020.66 1020.68 1020.68 1020.65 1020.60 1020.53 1020.46 1020.39 1020.33 1020.29 1020.26 1020.26 1020.27 1020.31 1020.35 1020.39 1020.42 1020.44 1020.44 1020.43 1020.41 1020.39 1020.38 1020.39 1020.43 1020.48 1020.53 1020.59 1020.62
1018.97 1019.16 1019.35 1019.55 1019.75 1019.95 1020.15 1020.34 1020.50 1020.63 1020.73 1020.79 1020.82 1020.80 1020.76 1020.69 1020.60 1020.50 1020.41 1020.33 1020.26 1020.22 1020.20 1020.19 1020.19 1020.18 1020.16 1020.13 1020.09 1020.04 1020.00 1019.98 1019.97 1019.99 1020.04 1020.09 1020.15 1020.19
1018.79 1019.00 1019.20 1019.40 1019.61 1019.83 1020.05 1020.28 1020.49 1020.68 1020.84 1020.96 1021.03 1021.06 1021.03 1020.96 1020.86 1020.73 1020.60 1020.47 1020.36 1020.27 1020.20 1020.15 1020.10 1020.06 1020.01 1019.94 1019.87 1019.79 1019.72 1019.67 1019.64 1019.64 1019.67 1019.72 1019.77 1019.82
1018.66 1018.90 1019.12 1019.33 1019.55 1019.78 1020.02 1020.27 1020.51 1020.74 1020.94 1021.11 1021.22 1021.27 1021.26 1021.20 1021.09 1020.95 1020.80 1020.65 1020.51 1020.38 1020.28 1020.20 1020.12 1020.05 1019.97 1019.87 1019.77 1019.67 1019.57 1019.49 1019.43 1019.41 1019.41 1019.45 1019.49 1019.54
1018.55 1018.82 1019.06 1019.28 1019.50 1019.73 1019.98 1020.23 1020.48 1020.73 1020.95 1021.14 1021.28 1021.35 1021.37 1021.32 1021.23 1021.09 1020.94 1020.78 1020.64 1020.51 1020.39 1020.30 1020.21 1020.12 1020.03 1019.92 1019.80 1019.67 1019.55 1019.44 1019.36 1019.31 1019.29 1019.31 1019.34 1019.37
1018.43 1018.73 1018.98 1019.21 1019.42 1019.63 1019.86 1020.09 1020.34 1020.58 1020.80 1021.00 1021.15 1021.25 1021.29 1021.27 1021.20 1021.09 1020.97 1020.83 1020.70 1020.59 1020.49 1020.40 1020.32 1020.24 1020.14 1020.03 1019.91 1019.77 1019.64 1019.52 1019.42 1019.35 1019.31 1019.31 1019.32 1019.35
1018.27 1018.59 1018.84 1019.06 1019.25 1019.43 1019.63 1019.83 1020.04 1020.26 1020.48 1020.67 1020.84 1020.96 1021.02 1021.04 1021.01 1020.95 1020.86 1020.77 1020.68 1020.60 1020.53 1020.48 1020.42 1020.36 1020.28 1020.18 1020.07 1019.94 1019.81 1019.69 1019.58 1019.50 1019.46 1019.44 1019.44 1019.45
1018.08 1018.40 1018.64 1018.84 1019.00 1019.14 1019.29 1019.45 1019.63 1019.82 1020.02 1020.21 1020.38 1020.52 1020.63 1020.69 1020.71 1020.70 1020.67 1020.63 1020.59 1020.55 1020.52 1020.50 1020.48 1020.44 1020.39 1020.32 1020.23 1020.13 1020.02 1019.91 1019.81 1019.74 1019.69 1019.67 1019.66 1019.66
1017.86 1018.17 1018.40 1018.56 1018.69 1018.79 1018.89 1019.01 1019.16 1019.32 1019.51 1019.70 1019.89 1020.06 1020.20 1020.31 1020.38 1020.42 1020.44 1020.45 1020.45 1020.46 1020.47 1020.48 1020.48 1020.48 1020.46 1020.42 1020.36 1020.29 1020.21 1020.13 1020.05 1019.99 1019.96 1019.94 1019.93 1019.92
1017.65 1017.95 1018.15 1018.29 1018.38 1018.45 1018.52 1018.61 1018.73 1018.89 1019.07 1019.27 1019.48 1019.68 1019.86 1020.01 1020.13 1020.21 1020.27 1020.32 1020.35 1020.37 1020.40 1020.43 1020.45 1020.47 1020.47 1020.46 1020.44 1020.40 1020.35 1020.30 1020.25 1020.22 1020.20 1020.19 1020.18 1020.18
1017.46 1017.73 1017.92 1018.04 1018.12 1018.17 1018.23 1018.32 1018.44 1018.60 1018.79 1019.02 1019.25 1019.48 1019.70 1019.88 1020.03 1020.14 1020.22 1020.27 1020.31 1020.34 1020.36 1020.38 1020.40 1020.42 1020.44 1020.44 1020.44 1020.43 1020.41 1020.39 1020.38 1020.37 1020.37 1020.38 1020.39 1020.38
1017.27 1017.54 1017.72 1017.84 1017.93 1018.00 1018.07 1018.17 1018.32 1018.50 1018.72 1018.98 1019.24 1019.50 1019.74 1019.95 1020.11 1020.23 1020.31 1020.35 1020.37 1020.37 1020.36 1020.36 1020.36 1020.36 1020.36 1020.37 1020.37 1020.38 1020.38 1020.39 1020.41 1020.43 1020.45 1020.48 1020.50 1020.51
1017.08 1017.34 1017.54 1017.69 1017.81 1017.91 1018.03 1018.18 1018.37 1018.59 1018.86 1019.14 1019.44 1019.73 1019.98 1020.20 1020.36 1020.47 1020.52 1020.54 1020.51 1020.47 1020.42 1020.37 1020.32 1020.29 1020.27 1020.26 1020.26 1020.27 1020.29 1020.32 1020.35 1020.40 1020.44 1020.49 1020.53 1020.55
1016.84 1017.12 1017.36 1017.56 1017.73 1017.90 1018.09 1018.30 1018.55 1018.83 1019.14 1019.46 1019.79 1020.09 1020.36 1020.57 1020.72 1020.80 1020.82 1020.79 1020.72 1020.62 1020.51 1020.40 1020.31 1020.23 1020.18 1020.14 1020.13 1020.13 1020.16 1020.19 1020.24 1020.30 1020.37 1020.43 1020.49 1020.53
1016.55 1016.86 1017.15 1017.42 1017.68 1017.93 1018.20 1018.49 1018.80 1019.14 1019.49 1019.86 1020.20 1020.52 1020.78 1020.98 1021.11 1021.16 1021.15 1021.07 1020.94 1020.79 1020.63 1020.46 1020.32 1020.20 1020.10 1020.04 1020.00 1020.00 1020.01 1020.05 1020.11 1020.19 1020.27 1020.35 1020.43 1020.49
1016.22 1016.59 1016.95 1017.30 1017.64 1017.99 1018.34 1018.71 1019.08 1019.48 1019.87 1020.25 1020.61 1020.93 1021.18 1021.37 1021.47 1021.49 1021.44 1021.32 1021.16 1020.96 1020.75 1020.54 1020.35 1020.19 1020.06 1019.96 1019.91 1019.89 1019.90 1019.94 1020.00 1020.09 1020.19 1020.29 1020.39 1020.47
1015.94 1016.36 1016.79 1017.22 1017.65 1018.08 1018.51 1018.95 1019.38 1019.81 1020.22 1020.62 1020.98 1021.28 1021.52 1021.68 1021.76 1021.75 1021.67 1021.53 1021.33 1021.10 1020.86 1020.63 1020.41 1020.21 1020.05 1019.93 1019.86 1019.82 1019.82 1019.86 1019.93 1020.03 1020.15 1020.27 1020.39 1020.49
1015.78 1016.26 1016.76 1017.26 1017.77 1018.26 1018.75 1019.23 1019.69 1020.13 1020.55 1020.94 1021.28 1021.56 1021.77 1021.90 1021.96 1021.93 1021.83 1021.67 1021.46 1021.22 1020.97 1020.71 1020.48 1020.26 1020.09 1019.95 1019.85 1019.80 1019.80 1019.84 1019.91 1020.02 1020.15 1020.29 1020.43 1020.56
1015.84 1016.37 1016.92 1017.48 1018.03 1018.57 1019.09 1019.58 1020.05 1020.48 1020.88 1021.23 1021.54 1021.78 1021.96 1022.06 1022.09 1022.04 1021.93 1021.77 1021.56 1021.31 1021.06 1020.80 1020.55 1020.33 1020.14 1019.99 1019.88 1019.82 1019.81 1019.85 1019.93 1020.04 1020.19 1020.35 1020.50 1020.64
1016.19 1016.75 1017.33 1017.92 1018.49 1019.03 1019.55 1020.02 1020.46 1020.86 1021.21 1021.52 1021.77 1021.96 1022.10 1022.16 1022.17 1022.11 1021.99 1021.82 1021.61 1021.38 1021.13 1020.88 1020.63 1020.41 1020.21 1020.05 1019.93 1019.86 1019.84 1019.87 1019.95 1020.07 1020.22 1020.39 1020.56 1020.71
1016.83 1017.40 1017.99 1018.57 1019.12 1019.64 1020.12 1020.55 1020.94 1021.27 1021.56 1021.80 1021.99 1022.12 1022.21 1022.24 1022.21 1022.14 1022.01 1021.85 1021.65 1021.42 1021.19 1020.94 1020.71 1020.48 1020.28 1020.11 1019.99 1019.91 1019.88 1019.90 1019.97 1020.09 1020.24 1020.41 1020.58 1020.73
1017.72 1018.27 1018.83 1019.37 1019.88 1020.35 1020.76 1021.13 1021.44 1021.70 1021.91 1022.07 1022.19 1022.27 1022.30 1022.28 1022.23 1022.14 1022.01 1021.85 1021.67 1021.46 1021.23 1021.00 1020.78 1020.56 1020.36 1020.19 1020.05 1019.96 1019.92 1019.93 1019.99 1020.09 1020.23 1020.39 1020.56 1020.70
Thickness
5728 5727 5725 5725 5724 5722 5721 5719 5714 5710 5713 5718 5721 5724 5723 5722 5721 5720 5719 5718 5715 5713 5711 5709 5707 5705 5702 5700 5698 5696 5693 5691 5689 5687 5685 5683 5682 5680
5727 5726 5725 5724 5723 5722 5721 5719 5718 5714 5713 5718 5719 5721 5721 5721 5720 5719 5718 5716 5714 5713 5710 5708 5706 5704 5702 5700 5698 5695 5693 5690 5688 5686 5684 5682 5680 5679
5726 5725 5725 5724 5722 5721 5720 5718 5717 5715 5713 5716 5717 5717 5717 5717 5717 5716 5715 5714 5712 5711 5709 5707 5705 5703 5701 5699 5697 5694 5692 5689 5687 5684 5682 5680 5679 5677
5725 5724 5724 5723 5721 5720 5719 5718 5716 5715 5713 5712 5714 5714 5714 5714 5713 5712 5712 5711 5710 5709 5707 5705 5703 5701 5699 5697 5695 5693 5690 5688 5685 5682 5680 5678 5676 5674
5725 5724 5723 5721 5720 5719 5718 5717 5716 5715 5712 5711 5711 5711 5710 5710 5708 5708 5708 5707 5706 5705 5703 5702 5700 5698 5696 5694 5692 5690 5688 5685 5682 5680 5677 5674 5672 5670
5725 5724 5723 5721 5720 5718 5717 5716 5714 5712 5710 5708 5708 5707 5706 5705 5703 5702 5701 5701 5700 5700 5699 5697 5695 5693 5692 5690 5688 5686 5683 5681 5678 5676 5673 5670 5668 5665
5723 5722 5722 5721 5719 5718 5716 5714 5712 5709 5707 5705 5704 5703 5702 5699 5698 5697 5695 5695 5694 5694 5693 5692 5690 5688 5686 5684 5682 5681 5678 5676 5673 5670 5668 5665 5662 5659
5720 5719 5719 5718 5717 5715 5714 5712 5710 5707 5705 5703 5701 5699 5699 5698 5695 5693 5690 5688 5687 5689 5686 5685 5683 5682 5680 5678 5677 5675 5672 5670 5667 5664 5661 5659 5656 5653
5716 5715 5715 5715 5713 5712 5711 5708 5706 5705 5703 5701 5699 5697 5696 5694 5691 5689 5686 5684 5682 5682 5678 5677 5677 5675 5674 5672 5670 5668 5665 5663 5660 5657 5655 5652 5649 5646
5712 5710 5709 5708 5708 5707 5705 5703 5701 5700 5699 5697 5695 5694 5692 5691 5688 5686 5683 5679 5677 5674 5672 5669 5669 5667 5667 5665 5663 5660 5658 5655 5652 5649 5646 5643 5640 5638
5706 5705 5704 5703 5702 5701 5699 5696 5694 5694 5692 5690 5688 5686 5685 5683 5681 5678 5675 5671 5668 5667 5664 5661 5660 5659 5658 5656 5654 5652 5649 5646 5643 5639 5636 5634 5631 5628
5700 5699 5698 5697 5696 5694 5692 5690 5687 5685 5683 5682 5679 5678 5676 5674 5672 5670 5668 5664 5660 5658 5656 5652 5651 5648 5648 5648 5645 5641 5638 5635 5632 5629 5625 5623 5619 5616
5693 5692 5691 5690 5688 5686 5685 5683 5680 5678 5675 5673 5671 5668 5666 5664 5662 5659 5657 5655 5652 5649 5647 5643 5641 5638 5635 5635 5634 5630 5627 5623 5620 5617 5614 5611 5608 5604
5686 5684 5682 5681 5680 5677 5675 5673 5671 5668 5666 5664 5661 5658 5655 5653 5651 5649 5646 5644 5641 5637 5635 5632 5630 5627 5624 5622 5621 5619 5615 5611 5608 5605 5602 5599 5595 5591
5678 5676 5674 5672 5670 5668 5665 5663 5661 5658 5655 5651 5649 5646 5643 5641 5639 5637 5634 5632 5629 5626 5623 5620 5617 5615 5612 5610 5609 5606 5603 5600 5596 5593 5589 5585 5582 5578
5669 5667 5664 5662 5660 5657 5655 5652 5649 5646 5643 5640 5636 5634 5632 5630 5627 5624 5622 5619 5617 5614 5610 5607 5605 5603 5601 5598 5595 5592 5589 5586 5583 5579 5575 5572 5569 5565
5660 5658 5655 5652 5649 5646 5643 5640 5637 5635 5631 5629 5626 5623 5620 5617 5614 5611 5608 5606 5603 5601 5598 5595 5592 5589 5587 5585 5582 5579 5575 5572 5568 5564 5562 5560 5556 5552
5651 5647 5643 5640 5637 5634 5632 5629 5626 5623 5620 5617 5614 5611 5608 5605 5602 5599 5595 5592 5590 5587 5585 5582 5579 5578 5575 5571 5567 5564 5561 5558 5554 5551 5548 5547 5544 5540
5639 5634 5631 5628 5625 5623 5620 5617 5614 5610 5608 5605 5602 5599 5596 5593 5590 5586 5583 5579 5576 5574 5571 5568 5565 5563 5563 5560 5555 5549 5547 5544 5542 5539 5536 5533 5531 5527
5625 5621 5618 5615 5612 5609 5606 5603 5600 5598 5595 5592 5589 5586 5583 5580 5576 5573 5569 5566 5563 5560 5557 5554 5551 5548 5546 5543 5540 5536 5533 5531 5529 5526 5523 5520 5517 5514
5611 5608 5605 5602 5599 5596 5593 5590 5587 5584 5581 5579 5575 5572 5568 5565 5562 5559 5555 5551 5549 5546 5544 5541 5537 5533 5531 5528 5527 5525 5521 5517 5514 5512 5510 5509 5507 5505
5598 5595 5592 5589 5586 5582 5579 5576 5573 5570 5567 5564 5561 5557 5554 5551 5548 5544 5542 5538 5535 5532 5529 5526 5523 5521 5519 5517 5515 5512 5509 5505 5502 5500 5497 5495 5494 5494
5585 5581 5578 5575 5572 5569 5566 5563 5560 5556 5553 5550 5546 5543 5540 5537 5534 5531 5528 5525 5522 5519 5517 5515 5512 5509 5506 5504 5501 5499 5496 5494 5492 5489 5487 5484 5482 5480